sat.trackr.live / text

‹ back to catalog

STARLINK-5100

NORAD 55495 · 2023-015AY

PAYLOAD ACTIVE UNKNOWN

§ Identity

Operator
Country
US
Launch date
2023-02-02
Launch site
AFETR
Launch vehicle
Mass (kg)
RCS (m²)

Purposes: comms

External: N2YO · Heavens-Above · Gunter

§ Orbital elements

Epoch: 2026-09-20T14:28:30.552096Z

Period
94.27 min
Inclination
43.0026°
Eccentricity
0.0001136
Mean motion
15.27575254 rev/d
Perigee alt
482.3 km
Apogee alt
483.8 km
Semi-major
6,861.2 km
B*
-2.9682e-7
RAAN
300.7411°
Arg perigee
273.9483°
Mean anomaly
86.1238°
Rev number
20,061

§ Raw data

STARLINK-51001 55495U 23015AY  26263.60313139 -.00000270  00000+0 -29682-6 0  99972 55495  43.0026 300.7411 0001136 273.9483  86.1238 15.27575254200618

JSON: /api/v1/satellites/55495 · /tle

For live sub-satellite position, see the globe view (requires WebGL).

§ Visibility from observer

Set your observer location to see the next 7 days of passes ≥ 10°. The values pass through the URL so the page stays shareable.

No JS? Fill the form by hand. The geolocation button needs JavaScript.